Time,TemperatureF,DewpointF,PressureIn,WindDirection,WindDirectionDegrees,WindSpeedMPH,WindSpeedGustMPH,Humidity,HourlyPrecipIn,Conditions,Clouds,dailyrainin,SolarRadiationWatts/m^2,SoftwareType,DateUTC
2013-10-16 00:03:00,58.0,43.0,30.06,SE,133,10.0,17.0,57,-99.99,,,-99.99,0.000000,,2013-10-16 06:03:00,
2013-10-16 01:11:00,58.0,42.0,30.06,SE,133,11.0,17.0,56,-99.99,,,-99.99,0.000000,,2013-10-16 07:11:00,
2013-10-16 01:42:00,57.0,41.0,30.06,SE,128,12.0,18.0,54,-99.99,,,-99.99,0.000000,,2013-10-16 07:42:00,
2013-10-16 02:11:00,57.0,41.0,30.06,SE,126,12.0,18.0,54,-99.99,,,-99.99,0.000000,,2013-10-16 08:11:00,
2013-10-16 02:21:00,57.0,40.0,30.06,SE,133,11.0,19.0,53,-99.99,,,-99.99,0.000000,,2013-10-16 08:21:00,
2013-10-16 02:42:00,57.0,41.0,30.06,SE,131,10.0,16.0,54,-99.99,,,-99.99,0.000000,,2013-10-16 08:42:00,
2013-10-16 02:52:00,57.0,40.0,30.06,SE,132,11.0,17.0,54,-99.99,,,-99.99,0.000000,,2013-10-16 08:52:00,
2013-10-16 03:11:00,57.0,41.0,30.06,SE,126,11.0,16.0,54,-99.99,,,-99.99,0.000000,,2013-10-16 09:11:00,
2013-10-16 03:43:00,56.0,42.0,30.06,SE,132,9.0,14.0,57,-99.99,,,-99.99,0.000000,,2013-10-16 09:43:00,
2013-10-16 04:42:00,56.0,42.0,30.06,SE,125,9.0,13.0,59,-99.99,,,-99.99,0.000000,,2013-10-16 10:42:00,
2013-10-16 05:42:00,55.0,44.0,30.06,SE,136,6.0,10.0,66,-99.99,,,-99.99,0.000000,,2013-10-16 11:42:00,
2013-10-16 06:42:00,55.0,45.0,30.06,SE,138,6.0,10.0,67,-99.99,,,-99.99,0.000000,,2013-10-16 12:42:00,
2013-10-16 06:52:00,55.0,45.0,30.07,SE,135,7.0,12.0,67,-99.99,,,-99.99,0.000000,,2013-10-16 12:52:00,
2013-10-16 07:01:00,55.0,45.0,30.07,SE,135,7.0,12.0,67,-99.99,,,-99.99,0.000000,,2013-10-16 13:01:00,
2013-10-16 07:42:00,55.0,45.0,30.08,SE,132,7.0,11.0,68,-99.99,,,-99.99,1.390000,,2013-10-16 13:42:00,
2013-10-16 08:42:00,55.0,45.0,30.10,SE,129,6.0,11.0,68,-99.99,,,-99.99,42.540001,,2013-10-16 14:42:00,
2013-10-16 09:43:00,58.0,45.0,30.12,ESE,111,6.0,10.0,62,-99.99,,,-99.99,357.029999,,2013-10-16 15:43:00,
2013-10-16 11:52:00,64.0,47.0,30.12,SSE,165,7.0,12.0,54,-99.99,,,-99.99,655.489990,,2013-10-16 17:52:00,
2013-10-16 12:02:00,64.0,47.0,30.12,SSE,165,7.0,12.0,54,-99.99,,,-99.99,655.489990,,2013-10-16 18:02:00,
2013-10-16 13:22:00,70.0,42.0,30.08,SSW,210,7.0,14.0,36,-99.99,,,-99.99,732.900024,,2013-10-16 19:22:00,
2013-10-16 13:32:00,70.0,42.0,30.08,SSW,210,7.0,14.0,36,-99.99,,,-99.99,732.900024,,2013-10-16 19:32:00,
2013-10-16 14:52:00,73.0,31.0,30.04,SW,234,6.0,14.0,21,-99.99,,,-99.99,642.239990,,2013-10-16 20:52:00,
2013-10-16 15:02:00,73.0,31.0,30.04,SW,234,6.0,14.0,21,-99.99,,,-99.99,642.239990,,2013-10-16 21:02:00,
2013-10-16 16:54:00,75.0,20.0,30.02,West,263,8.0,18.0,12,-99.99,,,-99.99,361.920013,,2013-10-16 22:54:00,
2013-10-16 17:02:00,75.0,20.0,30.02,West,263,8.0,18.0,12,-99.99,,,-99.99,361.920013,,2013-10-16 23:02:00,
2013-10-16 18:11:00,74.0,20.0,30.02,West,274,7.0,12.0,12,-99.99,,,-99.99,133.889999,,2013-10-17 00:11:00,
2013-10-16 18:42:00,71.0,24.0,30.02,SW,235,3.0,5.0,16,-99.99,,,-99.99,22.309999,,2013-10-17 00:42:00,
2013-10-16 19:12:00,66.0,21.0,30.03,WNW,297,8.0,10.0,17,-99.99,,,-99.99,2.790000,,2013-10-17 01:12:00,
2013-10-16 21:12:00,59.0,23.0,30.06,NNE,13,7.0,9.0,25,-99.99,,,-99.99,0.000000,,2013-10-17 03:12:00,
2013-10-16 21:22:00,57.0,26.0,30.06,North,5,5.0,7.0,29,-99.99,,,-99.99,0.000000,,2013-10-17 03:22:00,
2013-10-16 21:44:00,55.0,28.0,30.06,NNE,12,6.0,8.0,34,-99.99,,,-99.99,0.000000,,2013-10-17 03:44:00,
2013-10-16 22:43:00,54.0,27.0,30.07,SSW,195,6.0,11.0,34,-99.99,,,-99.99,0.000000,,2013-10-17 04:43:00,
2013-10-16 23:42:00,48.0,24.0,30.06,North,355,5.0,8.0,37,-99.99,,,-99.99,0.000000,,2013-10-17 05:42:00,